Regional Weather Roundup
Issued by NWS

Home | Current Version | Previous Version | Text Only | Print | Product List | Glossary Off
Versions: 1 2 3 4 5 6 7 8 9 10 11 12 13 14 15 16 17 18 19 20 21 22 23 24 25 26 27 28 29 30 31 32 33 34 35 36 37 38 39 40 41 42 43 44 45 46 47 48 49 50

000
ASUS43 KLOT 070208
RWRIL

ILLINOIS REGIONAL WEATHER ROUNDUP
NATIONAL WEATHER SERVICE CHICAGO/ROMEOVILLE IL
800 PM CST SAT FEB 06 2016

NOTE: "FAIR" INDICATES FEW OR NO CLOUDS BELOW 12,000 FEET WITH NO
SIGNIFICANT WEATHER AND/OR OBSTRUCTIONS TO VISIBILITY.

* THESE STATIONS ARE NOT UNDER NWS QUALITY CONTROL. THEY ALSO MAY NOT
  REPORT WEATHER SUCH AS PRECIPITATION OR FOG.

ILZ001-002-007-009-015-016-024-070300-
NORTHWEST ILLINOIS

CITY           SKY/WX    TMP DP  RH WIND       PRES   REMARKS
MOLINE         CLEAR     28  25  88 CALM      30.10F
STERLING*      CLEAR     28  27  93 E5        30.09F WCI  23
SAVANNA*       CLEAR     29  28  96 SE3       30.10F FOG
$$

ILZ003-004-008-010-011-017-018-070300-
NORTH CENTRAL ILLINOIS

CITY           SKY/WX    TMP DP  RH WIND       PRES   REMARKS
ROCKFORD       CLEAR     31  27  85 S5        30.13F WCI  26
FREEPORT*      CLEAR     28  27  96 CALM      30.11F FOG
ROCHELLE*      CLEAR     30  29  95 CALM      30.12F
DE KALB*       CLEAR     33  28  82 W5        30.12S WCI  29
PERU*          CLEAR     15   7  72 SW6       30.13F WCI   6
$$

ILZ005-006-012>014-019>023-070300-
NORTHEAST ILLINOIS

CITY           SKY/WX    TMP DP  RH WIND       PRES   REMARKS
CHICAGO-OHARE  CLEAR     33  27  78 S7        30.11F WCI  27
CHICAGO-MIDWAY CLEAR     37  28  70 S6        30.12F WCI  32
AURORA         CLEAR     34  27  75 S7        30.12F WCI  28
LANSING*       CLEAR     30  27  89 S7        30.14F WCI  23
JOLIET*        CLEAR     32  29  88 S3        30.13F
WAUKEGAN       CLEAR     30  26  85 SW5       30.10F WCI  25
DUPAGE AIRPORT CLEAR     31  25  78 S5        30.11F WCI  26
KANKAKEE*      CLEAR     33  29  86 S5        30.15F WCI  28
WHEELING       CLEAR     31  26  82 S6        30.12F WCI  25
MORRIS*          N/A     33  29  86 S5        30.10F WCI  29
ROMEOVILLE*    CLEAR     32  28  84 S8        30.12F WCI  25
NORTHERLY ISL    N/A     36  28  73 S6          N/A  WCI  31
$$

LMZ740>746-070300-
SOUTHERN LAKE MICHIGAN

STATION/POSITION SKY/WX   TEMP    WIND        PRES    VSBY  WAVE
                          AIR SEA DIR/SP/G                  HT/PER
                          (F)     (DEG/KT/KT) (MB)    (MI)  (FT/S)
HARRISON CRIB              40     180/ 11/ 11   N/A
BURNHAM HARBOR             38     190/  2/  6   N/A
CALUMET HARBOR             37     160/  3/  4 1020.2F
BURNS HARBOR               37     190/  7/  9 1022.0S
MICHIGAN CITY              38     160/  9/ 11   N/A
$$

ILZ025>027-034>036-040-047-049-050-058-095>099-070300-
WEST-CENTRAL ILLINOIS

CITY           SKY/WX    TMP DP  RH WIND       PRES   REMARKS
QUINCY         CLEAR     37  25  61 SW5       30.14F WCI  33
MACOMB*        CLEAR     36  29  76 SW7       30.16F WCI  30
JACKSONVILLE*  CLEAR     42  31  64 SW5       30.16S
PITTSFIELD*    CLEAR     40  28  60 SW3       30.16F
$$

ILZ028>032-037-038-041>044-048-051>054-059>061-070300-
CENTRAL ILLINOIS

CITY           SKY/WX    TMP DP  RH WIND       PRES   REMARKS
PONTIAC        CLEAR     34  32  91 S5        30.15F WCI  30
BLOOMINGTON    CLEAR     32  30  92 SW7       30.15F WCI  26
DECATUR        CLEAR     38  30  73 SW6       30.17S WCI  33
PEORIA         CLEAR     35  25  66 CALM      30.14F
LACON*         CLEAR     34  25  69 S3        30.13F
LINCOLN*       CLEAR     35  32  88 CALM      30.16S
SPRINGFIELD    CLEAR     38  31  76 SW5       30.16F WCI  34
TAYLORVILLE    CLEAR     36  32  87 S8        30.17F WCI  29
$$

ILZ033-039-045-046-055>057-062-063-070300-
EAST-CENTRAL ILLINOIS

CITY           SKY/WX    TMP DP  RH WIND       PRES   REMARKS
CHAMPAIGN      CLEAR     33  29  85 S9        30.17S WCI  25
RANTOUL*       CLEAR     37  33  85 S3        30.16F
MATTOON        CLEAR     41  27  57 S3        30.17F
PARIS*         CLEAR     33  29  86 S7        30.20S WCI  27
$$

ILZ079-100>102-070300-
SOUTHWEST ILLINOIS

CITY           SKY/WX    TMP DP  RH WIND       PRES   REMARKS
BELLEVILLE     CLEAR     37  28  69 CALM      30.19S
CAHOKIA*       CLEAR     41  26  55 S3        30.19F
SPARTA*        CLEAR     46  21  37 S8        30.23S
$$

ILZ064>066-069>071-074>076-080>082-084>086-088>090-092>094-070300-
SOUTH-CENTRAL ILLINOIS

CITY           SKY/WX    TMP DP  RH WIND       PRES   REMARKS
CARBONDALE     CLEAR     40  23  50 S10       30.25R
CAIRO*         CLEAR     44  28  53 S7        30.27F
MARION         CLEAR     41  23  48 S6        30.26S
MT. VERNON     PTCLDY    36  23  60 S3        30.23S
CENTRALIA*     PTCLDY    41  28  60 S9        30.21R
SALEM*         MOCLDY    45  24  42 S7        30.21S
METROPOLIS*    CLEAR     44  26  48 S6        30.28S
$$

ILZ067-068-072-073-078-083-087-091-070300-
SOUTHEAST ILLINOIS

CITY           SKY/WX    TMP DP  RH WIND       PRES   REMARKS
LAWRENCEVILLE  CLEAR     35  27  72 S9        30.23S WCI  28
FLORA*         CLEAR     37  27  68 S6        30.22S WCI  32
FAIRFIELD*     CLEAR     40  27  60 S5        30.22S
HARRISBURG*    CLEAR     43  27  52 S5        30.26S
ROBINSON*      CLEAR     34  24  68 S8        30.23S WCI  27
CARMI*         CLEAR     40  28  62 S8        30.24S
$$

ABBREVIATIONS USED IN REMARKS
   TC - TEMPERATURE IN CELSIUS
  WCI - WIND CHILL INDEX
   HX - HEAT INDEX
  VSB - VISIBILITY
$$




USA.gov is the U.S. government's official web portal to all federal, state and local government web resources and services.